Location: Recife
(8.0585°S, 34.8848°W)
Time: 02:51:47
(UTC-03:00)

Courier 1B Rocket - Pass Details

Date: 14 April 2026
Orbit: 920 x 1201 km, 28.2° (Epoch: 14 May)

Event Time Altitude Azimuth Distance (km) Brightness Sun altitude
Exits shadow 03:56:00 17° 323° (NW) 2,192 6.6 -21.9°
Maximum altitude 04:00:43 47° 31° (NNE) 1,241 5.8 -20.7°
Drops below altitude 10° 04:07:05 10° 103° (ESE) 2,770 8.4 -19.2°
Sets 04:09:57 0° 109° (ESE) 3,766 9.2 -18.4°
